Regional Weather Roundup
Issued by NWS

Home | Current Version | Previous Version | Graphics & Text | Print | Product List | Glossary On
Versions: 1 2 3 4 5 6 7 8 9 10 11 12 13 14 15 16 17 18 19 20 21 22 23 24 25 26 27 28 29 30 31 32 33 34 35 36 37 38 39 40 41 42 43 44 45 46 47 48 49 50
000
ASUS43 KMKX 040800
RWRWI

WISCONSIN REGIONAL WEATHER ROUNDUP
NATIONAL WEATHER SERVICE MILWAUKEE/SULLIVAN WI
300 AM CDT SAT JUL 04 2015

NOTE: "FAIR" INDICATES FEW OR NO CLOUDS BELOW 12,000 FEET WITH NO
SIGNIFICANT WEATHER AND/OR OBSTRUCTIONS TO VISIBILITY.

WIZ001-002-006>008-014>016-023>028-040900-
NORTHWEST WISCONSIN

CITY           SKY/WX    TMP DP  RH WIND       PRES   REMARKS
SUPERIOR ARPT  CLEAR     53  53  97 NE3       29.92R
ASHLAND        CLEAR     55  55 100 CALM      29.92R FOG
HAYWARD        FOG       55  54  96 CALM      29.93R VSB 1/4
SIREN          CLEAR     58  57  96 CALM      29.92R FOG
CUMBERLAND     CLEAR     59  59 100 CALM      29.93S FOG
RICE LAKE      FOG       60  59  96 CALM      29.93S VSB<1/4
CHETEK         CLEAR     62  60  93 SW5       29.92S
LADYSMITH      CLEAR     57  56  95 CALM      29.94S FOG
EAU CLAIRE     CLEAR     63  56  78 SW3       29.91S
MENOMONIE      CLEAR     61  59  92 CALM      29.92S
NEW RICHMOND   CLEAR     62  59  91 SW5       29.93S
OSCEOLA        CLEAR     60  60 100 CALM      29.95S
$$

WIZ003>005-009-010-017-018-040900-
NORTH CENTRAL WISCONSIN

CITY           SKY/WX    TMP DP  RH WIND       PRES   REMARKS
MANITOWISH WTR FOG       53  53 100 CALM      29.93S VSB<1/4
ARBOR VITAE    FOG       57  56  95 CALM      29.93S VSB 3/4
WOODRUFF       FOG       57  56  95 CALM      29.93S VSB 3/4
RHINELANDER    PTCLDY    57  56  96 CALM      29.94S FOG
EAGLE RIVER    PTCLDY    55  55 100 CALM      29.94S FOG
LAND O LAKES     N/A     51  51  99 CALM      29.95S FOG
PHILLIPS       CLEAR     55  54  99 CALM      29.92S
TOMAHAWK       FOG       55  53  96 CALM      29.94S VSB<1/4
MEDFORD        CLEAR     56  56  99 CALM      29.94R FOG
MERRILL        FOG       57  57 100 CALM      29.94R VSB 3/4
$$

WIZ029-030-035-036-043>047-040900-
CENTRAL WISCONSIN

CITY           SKY/WX    TMP DP  RH WIND       PRES   REMARKS
WAUSAU         CLEAR     61  58  90 CALM      29.92R
MOSINEE        CLEAR     59  55  88 W6        29.94S
MARSHFIELD     MOCLDY    60  55  83 SW3       29.94R
STEVENS POINT  CLEAR     55  54  94 CALM      29.94S
WAUPACA        CLEAR     60  59  95 CALM      29.93S
WAUTOMA        NOT AVBL
WISC RAPIDS    PTCLDY    58  55  90 CALM      29.95R
CAMP DOUGLAS   FOG       54  54 100 E1        29.93S VSB 3/4
$$

WIZ011>013-019>022-031-037>040-048>050-040900-
NORTHEAST WISCONSIN

CITY           SKY/WX    TMP DP  RH WIND       PRES   REMARKS
ANTIGO         MOCLDY    58  57  96 CALM      29.94R
SHAWANO        CLOUDY    64  59  84 CALM      29.91S
OCONTO         CLOUDY    57  57 100 CALM      29.89S
STURGEON BAY   CLOUDY    61  54  77 W3        29.92S
GREEN BAY      CLEAR     60  57  89 S3        29.91R
MANITOWOC      NOT AVBL
APPLETON       PTCLDY    61  55  82 W7        29.93R
CLINTONVILLE   CLOUDY    61  57  88 CALM      29.91S
OSHKOSH        PTCLDY    64  57  78 W6        29.92S
$$

WIZ032>034-041-042-053>061-040900-
SOUTHWEST WISCONSIN

CITY           SKY/WX    TMP DP  RH WIND       PRES   REMARKS
LA CROSSE      MOCLDY    64  61  90 S7        29.94R
SPARTA         PTCLDY    54  53  96 CALM      29.95S
VIROQUA        CLEAR     61  60  97 SW5       29.96S
BOSCOBEL       CLEAR     55  54  96 CALM      29.96S FOG
PRAIRIE DU CHI CLEAR     58  56  92 CALM      29.96R
PLATTEVILLE    CLEAR     61  56  83 S3        29.97S
$$

WIZ056-057-062-063-064-067-068-040900-
SOUTH CENTRAL WISCONSIN

CITY           SKY/WX    TMP DP  RH WIND       PRES   REMARKS
REEDSBURG      PTCLDY    57  56  96 CALM      29.95S
BARABOO/DELLS  PTCLDY    60  56  87 CALM      29.95S
LONE ROCK      NOT AVBL
MINERAL POINT  CLEAR     61  54  77 SW3       29.97S
MADISON        CLEAR     58  54  86 CALM      29.95S
MIDDLETON      CLEAR     57  56  96 CALM      29.96S
WATERTOWN      CLEAR     56  56 100 CALM      29.94S
MONROE         CLEAR     63  52  67 W8        29.96S
JANESVILLE     CLEAR     57  55  94 CALM      29.95S
$$

WIZ051-052-058>065-066-070>072-040900-
SOUTHEAST WISCONSIN

CITY           SKY/WX    TMP DP  RH WIND       PRES   REMARKS
MILWAUKEE      PTCLDY    63  54  72 SW5       29.94S
WAUKESHA       CLEAR     55  52  88 CALM      29.96S
MILWAUKEE/TIMM CLEAR     59  52  77 CALM      29.95S
RACINE         CLEAR     61  52  72 SW3       29.96S
BURLINGTON     CLEAR     51  51  99 CALM      29.95S FOG
KENOSHA        CLEAR     56  52  86 SW5       29.95S
FOND DU LAC    PTCLDY    62  57  83 SW7       29.93S
SHEBOYGAN      CLOUDY    60  55  83 SW5       29.92S
WEST BEND      PTCLDY    55  52  88 CALM      29.95R
JUNEAU         CLEAR     57  54  87 SW3       29.95S
$$

LSZ147-162-040900-
LAKE SUPERIOR

STATION/POSITION TIME  TEMP    WIND        PRES    WAVE
                       AIR SEA DIR/SP/G            HT/PER
                 (UTC) (F)     (DEG/KT/KT) (MB)    (FT/S)
W MID LAKE BUOY  0650   42 38   40/  4/  4 1013.5R   1
DEVILS ISLAND    0700   58      80/  7/  8 1013.3R
SAXON HARBOR     0700   61     170/  1/  3 1012.2F
$$

LMZ867-665-643>646-040900-
LAKE MICHIGAN

STATION/POSITION TIME  TEMP    WIND        PRES    WAVE
                       AIR SEA DIR/SP/G            HT/PER
                 (UTC) (F)     (DEG/KT/KT) (MB)    (FT/S)
CHAMBERS ISLAND  0700   65     240/  4/  6 1012.2S
S GREEN BAY BUOY 0700   69 68  220/  8/ 10 1013.6R
N MID LAKE BUOY  0650   49 43  200/  6/  8 1012.1S   2/ 4
NORTHPORT PIER   0700   65     260/  3/  7 1011.9S
SISTER BAY       0614   68     240/  6/  8   N/A
ALGOMA LAKESHORE 0626             CALM       N/A
KEWAUNEE LAKESHO 0700   63     290/  2/  5 1011.9F
SHEBOYGAN LAKESH 0700   62     210/  5/  6 1013.4F
PORT WASHINGTON  0700   60     240/  2/  3 1014.2
ATWATER BUOY     0700   65 60  220/  6/  6 1015.1F
MILWAUKEE LAKESH 0700   65     230/  8/  9   N/A
KENOSHA   LAKESH 0700   65     240/  8/ 10 1013.9S
$$

TC  - TEMPERATURE IN CELSIUS
VSB - VISIBILITY IN STATUTE MILES
WCI - WIND CHILL INDEX
HX  - HEAT INDEX




USA.gov is the U.S. government's official web portal to all federal, state and local government web resources and services.